Flag for Israel Weather past 2 weeks in Eilat, Israel

Now
77 °F

Sunny.


Feels Like: 78 °F
Forecast: 65 / 89 °F
Wind: 10 mph from Northeast

Location: Eilat

Current Time: Oct 21, 2014 at 10:34:27 AM

Latest Report: Oct 21, 2014 at 9:50 AM


Visibility: 10 mi

Pressure: 30.04 "Hg

Humidity: 44%

Dew point: 54 °F

Location of EilatLocation

Historic Weather in Eilat — Graph

°F

Eilat temperature yesterday

Maximum temperature yesterday: 88 °F (at 2:50 PM)
Minimum temperature yesterday: 73 °F (at 5:50 AM)
Average temperature yesterday: 81 °F

Past Weeks' High & Low Weather Summary

 TemperatureHumidityPressure
High102 °F (Oct 8, 1:50 PM)69% (Oct 20, 8:50 AM)30.15 "Hg (Oct 20, 8:50 AM)
Low66 °F (Oct 21, 6:50 AM)14% (Oct 18, 5:50 PM)29.74 "Hg (Oct 19, 3:50 PM)
Average87 °F38%29.93 "Hg
* Reported Oct 6 8:50 AM — Oct 21 8:50 AM, Eilat, Weather by CustomWeather, © 2014

Note: Actual official high and low records may vary slightly from our data, if they occured in-between our weather recording intervals... More about our weather records

Advertising

Eilat weather history for previous 24 hours

 ConditionsComfort  
Time TempWeatherWind HumidityBarometerVisibility
8:50 AM
Oct 21
72 °FSunny.7 mph61%30.04 "Hg10 mi
7:50 AM68 °FSunny.6 mph64%30.01 "Hg10 mi
6:50 AM66 °FSunny.5 mph64%30.01 "Hg10 mi
5:50 AM68 °FClear.7 mph64%29.98 "Hg10 mi
10:50 PM
Oct 20
77 °FClear.10 mph42%29.98 "Hg10 mi
9:50 PM79 °FClear.12 mph39%29.95 "Hg10 mi
8:50 PM81 °FClear.9 mph34%29.95 "Hg10 mi
7:50 PM82 °FClear.9 mph35%29.92 "Hg10 mi
6:50 PM82 °FClear.10 mph35%29.89 "Hg10 mi
5:50 PM84 °FSunny.12 mph31%29.86 "Hg10 mi
4:50 PM86 °FSunny.13 mph29%29.86 "Hg10 mi
3:50 PM88 °FSunny.8 mph27%29.86 "Hg10 mi
2:50 PM88 °FSunny.7 mph25%29.89 "Hg10 mi
1:50 PM84 °FPassing clouds.6 mph37%29.89 "HgN/A
12:50 PM84 °FPassing clouds.9 mph37%29.92 "HgN/A
11:50 AM82 °FPassing clouds.10 mph45%29.92 "HgN/A
10:50 AM81 °FSunny.8 mph51%29.95 "Hg10 mi
Weather by CustomWeather, © 2014

See weather overviewHow to use our weather pages